Find Starlink 11625

NORAD ID: 63109 Int'l Des: 2025-039 Owner: SPXS Country: US Constellation: starlink operational
又名: STARLINK-11625 [DTC] celestrak
LEOCIRCULAR

当前视图

正在加载3D地球...

About Starlink 11625

Starlink 11625 (NORAD 63109) is a starlink constellation satellite (v2 mini d2c) launched Feb 27, 2025 by SPXS of US. It operates in LEO, CIRCULAR orbit with a mass of 960.00 kg.

即将过境

Passes for default location (London). Set your location on the main map for personalized predictions.

高度历史

Loading altitude history...

两行轨道根数

1 63109U 25039F 26263.95732778 .00125696 00000-0 96585-3 0 9990
2 63109 43.0009 140.0452 0001689 257.5422 102.5257 15.70900881 90329
Epoch: Sep 20, 2026 • Age: 11 hours

当前状态

高度 357.4 km
远地点 / 近地点 N/A
速度 7.70 km/s
星下点 30.71°N, 124.38°E
发射日期 Feb 27, 2025
运行时间 1.5 years
类型 internet

技术详情

分类 Payload
质量 960.00 kg
干质量 910.00 kg
长度 0.30 m
跨度 29.00 m
形状 ? Box + pan
制造商 SPXS
平台类型 Starlink V2MD
阶段状态 In Orbit
所有者/国家 SPXS/US

Most Searched